Location: Riverton
(43.0250°N, 108.3790°W)
Time: 15:05:43
(UTC-06:00)

Daily predictions for brighter satellites

Satellite Brightness Start Highest point End
(mag) Time Altitude Azimuth Time Altitude Azimuth Time Altitude Azimuth
OE (NEXTSAT) 4.4 21:26:32 10° WNW 21:30:05 75° SSW 21:33:36 10° ESE
Cosmos 2266 Rocket 4.1 21:24:11 10° N 21:30:38 89° WSW 21:36:56 10° S
ERS-1 Rocket 4.0 21:27:38 10° SE 21:32:00 31° ENE 21:36:24 10° N
Cosmos 2278 Rocket 3.9 21:35:38 10° SE 21:38:29 14° E 21:41:20 10° ENE
Cosmos 1437 3.2 21:36:45 10° N 21:39:48 42° ENE 21:42:49 10° SSE
Cosmos 2084 3.3 21:36:29 10° NNW 21:40:20 67° NE 21:44:10 10° SE
Cosmos-2242 3.5 21:36:19 10° N 21:40:32 44° ENE 21:44:45 10° SSE
ARGOS 3.3 21:37:40 10° SSE 21:43:01 65° ENE 21:48:25 10° N
Cosmos 1048 Rocket 4.1 21:41:03 10° SSW 21:46:22 88° WNW 21:51:46 10° NNE
USA 215 3.7 21:43:55 10° SSE 21:50:19 55° SW 21:56:45 10° NW
Cosmos 1400 Rocket 4.4 21:46:57 10° SW 21:50:43 37° WNW 21:54:27 10° N
MetOp-A 4.2 21:45:54 10° SSE 21:51:14 74° ENE 21:56:35 10° N
COSMOS 2406 3.9 21:46:47 10° NNW 21:52:19 44° ENE 21:57:26 12° SE
Cosmos 1844 Rocket 2.7 21:51:30 10° S 21:57:05 65° ESE 22:02:42 10° NNE
Cosmos 1346 Rocket 2.8 21:53:30 10° N 21:57:31 70° E 22:01:27 11° SSE
Helios 1A 4.2 21:55:30 12° SE 21:58:44 28° ENE 22:02:21 10° N
Cosmos 1844 3.9 21:54:57 10° S 22:00:26 53° ESE 22:06:02 10° NNE
Terra 3.5 21:58:16 10° ESE 22:01:37 19° ENE 22:04:58 10° NNE
Helios 1B rocket 4.1 22:00:15 10° NE 22:03:03 18° E 22:04:48 14° ESE
Cosmos 1553 Rocket 4.3 21:58:42 10° SSE 22:04:28 48° E 22:10:15 10° NNE
Timation 1 Rocket 4.3 21:59:31 10° SSW 22:05:24 65° ESE 22:11:19 10° NNE
Aureole 1 Rocket 4.2 22:03:24 10° SW 22:06:28 37° WNW 22:10:11 10° N
Cosmos 1953 Rocket 3.8 22:02:54 10° SSW 22:07:14 72° W 22:11:38 10° N
Iridium 81 4.0 22:10:47 20° SSE 22:12:12 46° E 22:14:59 10° NNE
CSL-04 DEB 4.5 22:09:22 15° SSE 22:12:27 59° ENE 22:16:21 10° N
Cosmos 1758 Rocket 4.5 22:08:15 10° SSW 22:12:35 51° WNW 22:16:53 10° N
Meteor 1-24 Rocket 4.0 22:08:12 10° SSW 22:14:14 80° W 22:20:16 10° N
APEX 4.1 22:12:50 10° N 22:15:35 28° ENE 22:17:43 16° ESE
ATLAS 5 CENTAUR R/B 3.3 22:15:44 14° ESE 22:16:05 14° ESE 22:18:32 10° ENE
Resurs 01 Rocket 4.1 22:17:15 10° SW 22:20:18 18° W 22:23:22 10° NW
Cosmos 1908 3.2 22:18:45 10° N 22:22:38 90° NNE 22:25:38 16° S
OAO 3 Rocket 4.1 22:19:30 10° WSW 22:23:52 31° S 22:26:26 19° SE
Cosmos 2082 Rocket 4.0 22:20:20 10° N 22:24:35 21° NE 22:28:49 10° E
Cosmos 1110 Rocket 4.0 22:20:56 10° NNW 22:26:08 82° WSW 22:30:11 17° SSE
Cosmos 1833 Rocket 4.3 22:23:01 10° N 22:27:30 24° NE 22:31:41 11° ESE
Cosmos 1626 4.0 22:27:30 15° E 22:28:13 16° E 22:30:28 10° NE
SL-8 R/B 3.7 22:24:08 10° WSW 22:28:58 89° SE 22:33:50 10° ENE
Cosmos 2221 3.7 22:26:11 10° NNE 22:29:58 29° ENE 22:32:03 19° ESE
Cosmos 1340 2.6 22:29:09 10° N 22:32:58 70° E 22:35:08 24° SSE
Cosmos 921 Rocket 3.5 22:30:21 10° NNW 22:34:46 58° WSW 22:38:12 16° S
SPOT 1/Viking Rocket 3.5 22:31:53 19° SSE 22:35:34 73° ENE 22:40:43 10° N
H-2A R/B 2.7 22:30:37 10° S 22:35:47 54° W 22:41:05 10° NNW
CZ-2C R/B 3.9 22:33:47 10° NE 22:38:00 23° E 22:39:51 19° ESE
Cosmos 1331 Rocket 4.1 22:34:15 10° NNW 22:39:27 71° WSW 22:43:12 19° S
SPOT 5 3.0 22:36:22 20° SSE 22:40:00 83° ENE 22:45:19 10° NNW
ATLAS 3B R/B 2.6 22:34:40 10° NW 22:41:21 86° NE 22:45:53 22° SE
USA 238 DEB 3.9 22:36:04 10° NW 22:43:11 74° WSW 22:48:21 21° SSE
USA 238 3.9 22:36:10 10° NW 22:43:18 74° WSW 22:48:27 21° SSE
RESURS DK-1 4.5 22:44:08 12° E 22:44:08 12° E 22:45:19 10° ENE
Cosmos 494 Rocket 4.3 22:38:55 10° SSW 22:44:08 68° WNW 22:49:25 10° NNE
Cosmos 1674 3.8 22:43:30 10° SSW 22:47:09 44° WNW 22:50:51 10° N
Lacrosse 5 3.4 22:43:14 10° W 22:47:58 38° NNW 22:52:43 10° NE
Cosmos 1455 4.5 22:47:08 10° NE 22:48:42 12° ENE 22:49:42 11° E
Cosmos 1300 2.9 22:46:19 10° N 22:50:06 57° E 22:51:37 32° SE
Cosmos 1461 3.2 22:48:41 14° SSW 22:52:29 55° ESE 22:57:09 10° NE
NOSS 2-2 (C) 4.3 22:52:53 27° ESE 22:52:53 27° ESE 22:56:24 10° ENE
NOSS 3-2 (A) 4.0 22:47:52 10° NW 22:55:28 89° NE 23:01:03 23° SE
Cosmos 1745 Rocket 4.1 22:52:20 10° N 22:58:41 81° W 23:03:09 20° S
DMSP B5D2-2 4.4 22:54:07 10° N 22:59:19 65° WNW 23:04:28 10° SSW
Cosmos 1726 3.2 22:57:25 10° NNW 23:00:58 41° W 23:03:12 20° SSW
Cosmos 220 Rocket 4.2 22:58:54 11° SSW 23:02:57 69° WNW 23:07:11 10° NNE
Cosmos 1328 4.4 23:03:41 34° ESE 23:04:31 38° E 23:08:12 10° NNE
IGS 5A 3.4 23:02:42 33° SSE 23:04:32 88° ENE 23:08:43 10° NNW
CARTOSAT-1 3.5 23:04:05 32° SSE 23:06:04 89° ENE 23:10:25 10° NNW
Cosmos 1302 Rocket 4.1 23:02:24 10° NNW 23:07:41 72° WSW 23:10:29 28° S
ERS-1 Rocket 4.3 23:06:45 13° SSW 23:10:42 33° W 23:15:16 10° NNW
ATLAS 2AS CENTAUR R/B 3.9 23:03:30 10° WSW 23:11:11 52° NW 23:19:06 10° NNE
Cosmos 2251 Rocket 3.8 23:11:54 10° SSW 23:17:13 69° WNW 23:22:33 10° NNE
Landsat 7 4.4 23:16:59 25° SSW 23:19:33 51° W 23:24:13 10° NNW
NOSS 3-2 (C) 4.0 23:13:07 10° NW 23:20:43 87° SW 23:25:37 28° SSE
Cosmos 2278 Rocket 2.2 23:16:23 11° SSW 23:21:46 82° WNW 23:27:29 10° NNE
Aureole 3 Rocket 4.2 23:17:42 25° SSE 23:22:13 64° E 23:27:50 10° NNE
Cosmos 1076 Rocket 3.4 23:21:05 42° SSE 23:22:23 69° E 23:26:38 10° NNE
Meteor 1-29 3.0 23:19:10 10° N 23:22:34 72° WNW 23:23:31 43° SSW
Cosmos 1992 Rocket 4.3 23:19:38 10° NNW 23:24:47 57° ENE 23:26:52 34° SE
CZ-2C R/B 3.3 23:25:43 31° S 23:28:41 81° WSW 23:34:29 10° NNW
Spot 1 4.4 23:27:29 35° SSW 23:29:11 60° WSW 23:33:44 10° NNW
Cosmos 1408 Rocket 4.4 23:28:37 32° ESE 23:29:13 33° E 23:33:13 10° NNE
Cosmos 1766 Rocket 4.1 23:29:00 37° ESE 23:29:47 41° E 23:33:59 10° NNE
YAOGAN 11 4.1 23:28:16 40° S 23:29:53 85° WSW 23:34:28 10° NNW
SL-14 R/B 4.3 23:29:03 22° SW 23:31:10 42° WNW 23:34:56 10° N
Cosmos 1709 Rocket 3.9 23:25:50 10° N 23:32:06 88° W 23:35:09 32° S
Mayak 0.7 23:33:13 10° NE 23:35:33 16° E 23:35:33 16° E
ATLAS 3B CENTAUR R/B 4.1 23:25:36 10° SW 23:36:45 26° S 23:37:27 26° S
Helios 1B rocket 3.6 23:34:39 10° N 23:38:29 39° WNW 23:41:09 17° SW
Meteor 2-2 Rocket 4.2 23:33:19 10° N 23:38:57 71° ENE 23:41:07 38° SSE
Terra 2.4 23:37:00 31° SSW 23:38:58 50° W 23:43:37 10° NNW
Cosmos 405 Rocket 4.3 23:36:06 10° NNE 23:38:59 21° ENE 23:39:17 21° E
SL-08 ROCKET BODY 4.4 23:33:42 10° N 23:39:56 87° E 23:42:43 35° S
COBE Rocket 4.1 23:36:13 10° NNE 23:41:14 58° E 23:42:42 42° SSE
H-2A R/B 4.2 23:43:48 12° E 23:45:08 14° ENE 23:47:11 10° NNE
Cosmos 2074 Rocket 4.4 23:39:39 10° N 23:45:45 51° ENE 23:48:13 33° SE
NOSS 2-2 (E) 3.5 23:44:22 29° SW 23:46:15 74° NW 23:50:45 10° NNE
Cosmos 2151 4.1 23:46:32 29° E 23:46:39 29° E 23:50:21 10° NNE
ADEOS Rocket 4.1 23:41:28 10° NE 23:46:42 30° E 23:48:14 27° ESE
NOSS 3-4 (A) 3.7 23:41:59 10° SW 23:48:07 69° NW 23:54:34 10° NNE
NOSS 3-4 (C) 3.7 23:42:04 10° SW 23:48:11 70° NW 23:54:40 10° NNE
CENTAUR R/B 3.2 23:41:27 10° NW 23:49:26 77° NE 23:54:21 29° SE
Cosmos 2058 3.5 23:51:07 41° E 23:51:14 41° E 23:55:08 10° NNE
Cosmos 2369 Rocket 4.1 23:51:59 14° E 23:51:59 14° E 23:54:41 10° ENE
Cosmos 407 Rocket 4.0 23:53:25 37° ESE 23:53:58 38° ESE 23:58:44 10° NE
